Tracking 27419 objects as of 10-Jun-2023
HD Live streaming from Space Station
objects crossing your sky now

STARLINK-4550

Track STARLINK-4550 now!
10-day predictions
STARLINK-4550 is classified as:


NORAD ID: 53570
Int'l Code: 2022-101AV
Perigee: 546.3 km
Apogee: 547.5 km
Inclination: 53.2 °
Period: 95.4 minutes
Semi major axis: 6917 km
RCS: Unknown
Launch date: August 19, 2022
Source: United States (US)
Launch site: AIR FORCE EASTERN TEST RANGE (AFETR)
Your satellite tracking list
Your tracking list is empty




NASA's NSSDC Master Catalog

Two Line Element Set (TLE):
1 53570U 22101AV  23160.53773517 -.00000502  00000-0 -13450-4 0  9992
2 53570  53.2159 241.8452 0000888  83.4039 276.7054 15.08836594 45542
Source of the keplerian elements: AFSPC